Cloud_Cover
50 8 2 100 90 1 3 0 0 80 83 0 5 1 99 100 100 100 80 21 5 0 0 0 0 4 0 0 0 0 0 0 25 5 0 0 0 5 65 100 97 84 100 100
52 0 63 47 9 32 4 0 3 100 99 0 2 10 96 100 100 100 95 5 5 5 5 0 5 67 21 5 0 0 4 5 5 0 0 0 0 30 96 91 55 96 49 96
70 55 76 5 5 5 1 1 96 100 53 3 4 67 59 100 100 100 21 5 5 5 2 1 77 100 14 4 0 0 5 3 0 0 0 0 0 5 55 10 5 19 32 97
100 98 29 5 5 66 5 93 100 100 52 0 0 92 100 100 100 100 1 5 5 5 0 3 27 8 5 0 0 0 2 0 0 0 0 1 0 82 65 32 58 97 63 79
100 100 100 26 91 86 89 100 100 92 2 0 56 100 100 100 99 11 5 7 16 5 0 0 5 2 0 0 0 0 0 0 0 0 0 0 0 81 33 99 74 100 51 91
91 75 32 21 90 100 100 91 46 0 9 100 90 86 64 74 85 7 2 6 5 5 0 0 0 0 0 0 0 0 0 0 0 0 0 0 5 80 98 17 40 74 15 100
12 100 96 100 75 65 45 5 26 23 100 100 6 46 10 5 52 5 5 5 5 5 0 0 0 0 0 0 0 0 0 0 0 0 0 0 15 100 43 5 46 6 30 86
0 7 100 100 100 100 100 100 92 100 100 94 0 85 23 95 99 5 99 5 34 5 0 0 0 0 0 0 0 0 0 0 0 0 0 1 98 98 4 5 48 13 5 14
0 0 91 100 100 100 100 2 91 97 90 5 51 100 100 100 59 43 30 74 52 5 0 0 0 0 0 0 0 0 0 0 0 0 0 68 100 35 5 5 60 11 5 5
0 0 100 100 94 93 19 54 28 7 64 100 100 100 100 100 5 15 39 73 6 5 0 0 0 0 0 0 0 0 0 0 0 0 1 96 95 40 22 5 5 69 27 5
0 0 13 73 8 99 98 15 9 96 100 100 100 100 99 92 7 5 27 5 4 0 0 0 0 0 0 0 0 0 0 0 0 0 22 100 100 29 5 9 15 50 3 5
0 0 0 4 5 59 23 91 96 99 100 100 92 100 100 5 5 5 5 4 4 0 0 0 0 0 0 0 0 0 0 0 0 0 15 100 100 64 34 5 70 5 0 11
0 0 0 0 0 0 1 96 100 100 100 100 100 99 63 13 2 32 26 5 5 3 0 0 0 0 0 0 0 0 0 0 0 0 12 10 100 40 5 5 45 9 4 4
0 0 0 0 15 62 97 97 100 100 70 100 100 44 96 5 42 66 14 5 5 0 0 0 0 0 0 0 0 0 0 0 0 0 33 45 100 54 5 13 14 6 4 42
0 0 0 5 5 0 0 11 45 98 90 58 19 5 5 4 33 46 17 50 5 1 0 0 0 0 0 0 0 0 0 0 0 0 30 67 22 98 5 87 34 4 5 7
4 0 0 0 0 5 0 0 0 2 3 5 5 8 5 5 5 5 54 5 5 1 5 0 0 0 0 0 0 0 0 0 0 0 0 4 98 92 64 5 28 95 31 5
5 4 0 1 0 0 0 1 4 5 6 16 59 100 4 5 5 11 6 5 5 5 5 0 0 0 0 0 0 0 0 0 0 0 0 5 5 93 52 50 4 8 66 9
27 36 6 4 0 0 25 1 22 30 51 18 100 80 5 35 5 17 5 52 27 5 5 5 0 0 0 0 0 0 0 0 0 0 2 16 17 2 18 30 5 5 9 47
100 100 4 35 0 0 5 0 3 5 91 76 14 90 90 21 39 94 5 18 28 5 5 5 0 0 0 0 0 0 0 0 0 0 0 8 97 51 4 5 1 5 5 24
52 6 0 0 0 0 48 0 3 67 5 4 5 83 51 6 92 100 31 5 55 10 33 5 0 0 0 0 0 0 0 0 0 0 0 3 4 5 5 8 1 5 5 55
100 65 4 5 1 5 4 0 18 5 9 5 1 4 70 14 100 78 5 3 72 13 47 20 2 0 0 0 0 0 0 0 0 0 0 0 0 0 7 70 8 0 2 1
100 100 100 94 32 31 6 0 36 18 4 1 75 1 100 99 67 2 5 0 9 82 96 53 6 3 0 0 0 0 0 0 0 0 0 0 0 0 0 0 0 0 0 0
100 100 100 100 100 100 100 95 39 20 4 5 6 5 15 100 79 25 5 5 3 11 41 38 92 4 0 0 0 0 0 0 0 0 0 0 0 0 0 0 1 0 0 0
100 100 100 100 100 100 100 100 70 5 4 0 0 3 4 37 43 87 97 54 0 5 14 70 48 5 3 0 0 0 0 0 0 0 0 0 0 0 0 0 0 0 0 0
100 100 100 100 100 100 100 90 54 30 23 5 0 0 4 5 5 5 83 100 36 0 5 8 65 36 5 4 0 0 0 0 0 0 0 2 5 1 0 0 0 0 0 0
100 100 100 100 100 100 100 100 74 88 90 5 0 1 0 0 0 5 6 100 100 24 4 5 51 12 5 5 0 0 0 0 0 0 0 0 0 0 0 0 0 0 0 0